Yaogan 36 02 zu 02 xing

operational
NORAD ID: 54043 Int'l Des: 2022-133 Owner: ZZB Country: CN Constellation: yaogan
LEOCIRCULAR

About Yaogan 36 02 zu 02 xing

Description loading...

Live Position

Loading 3D Globe...

Upcoming Passes

Altitude History

Altitude vs Time

uPlot chart will show altitude changes over time

Two-Line Element Set

1 54043U 22133B 26063.00870846 .00018071 00000-0 60643-3 0 9996
2 54043 34.9981 60.2740 0005389 231.3663 128.6572 15.29989123188715
Epoch: Mar 4, 2026 • Age: 17 hours

Current Status

Altitude 473.2 km
Velocity 7.63 km/s
Sub-Earth Point -6.66°S, 167.54°W
Launch Date Oct 14, 2022
Age 3.3 years
Type military

Technical Details

Classification Payload
Mass 300.00 kg
Dry Mass 300.00 kg
Total Mass 300.00 kg
Length 2.50 m
Diameter 2.50 m
Span 5.00 m
Shape Box + 2 Pan
Manufacturer DFHZ
Phase Status In Orbit
Owner/State ZZB/CN

Large Constellations

Loading constellations...